Terug naar catalogus

SIRIUS XM-10

ActiefCommunicatieGEO
NORAD 64290·PAYLOAD·🇺🇸 United States

Gelanceerd Jun 7, 2025 vanaf Cape Canaveral Space Force Station

Loading…

TLE

VersSource: Space-Track

Epoch: Sep 14, 2026, 21:48 UTC

1 64290U 25122A   26257.90856736 -.00000024  00000-0  00000-0 0  9996
2 64290   0.0176  92.1827 0001517 267.4811 205.1456  1.00271852  4585

Volg SIRIUS XM-10 in realtime met AllMySat

Download on the App Store